Home > Weather > Tyler > Past weeks

Flag for USA Weather for the Past 2 Weeks in Tyler, Texas, USA

Now
79 °F

Partly sunny.


Feels Like: 81 °F
Forecast: 72 / 84 °F
Wind: 13 mph from South

Location: Tyler Pounds Field

Current Time: Apr 29, 2016 at 11:37:59 AM

Latest Report: Apr 29, 2016 at 10:53 AM


Visibility: 10 mi

Pressure: 29.72 "Hg

Humidity: 69%

Dew Point: 68 °F

Location of TylerLocation

Historic Weather in Tyler — Graph

°F

Tyler Temperature Yesterday

Maximum temperature yesterday: 86 °F (at 2:53 PM)
Minimum temperature yesterday: 60 °F (at 3:53 AM)
Average temperature yesterday: 75 °F

High & Low Weather Summary for the Past Weeks

 TemperatureHumidityPressure
High86 °F (Apr 25, 4:53 PM)94% (Apr 18, 6:53 AM)30.15 "Hg (Apr 18, 6:53 AM)
Low54 °F (Apr 15, 5:53 AM)29% (Apr 27, 6:53 PM)29.58 "Hg (Apr 26, 7:53 PM)
Average70 °F70%29.91 "Hg
* Reported Apr 14 9:49 AM — Apr 29 9:53 AM, Tyler, Weather by CustomWeather, © 2016

Note: Actual official high and low records may vary slightly from our data, if they occured in-between our weather recording intervals... More about our weather records

Advertising

Tyler Weather History for the Previous 24 Hours

Scroll right to see more
 ConditionsComfort  
Time TempWeatherWind HumidityBarometerVisibility
9:53 AM
Fri, Apr 29
79 °FBroken clouds.13 mph72%29.73 "Hg8 mi
8:53 AM78 °FMore clouds than sun.12 mph76%29.73 "Hg6 mi
7:53 AM76 °FMore clouds than sun.8 mph85%29.71 "Hg6 mi
6:53 AM75 °FLight rain. Mostly cloudy.10 mph88%29.70 "Hg7 mi
5:53 AM77 °FLight rain. Mostly cloudy.16 mph79%29.69 "Hg10 mi
4:53 AM76 °FOvercast.10 mph82%29.71 "Hg10 mi
3:53 AM76 °FOvercast.9 mph80%29.71 "Hg10 mi
2:53 AM75 °FPassing clouds.12 mph79%29.74 "Hg10 mi
2:02 AM76 °FPassing clouds.8 mph77%29.79 "Hg10 mi
1:53 AM76 °FPartly cloudy.9 mph77%29.77 "Hg10 mi
12:53 AM77 °FPartly cloudy.13 mph66%29.78 "Hg10 mi
11:53 PM
Thu, Apr 28
77 °FPartly cloudy.10 mph54%29.80 "Hg10 mi
10:53 PM78 °FMostly cloudy.9 mph48%29.82 "Hg10 mi
9:53 PM77 °FClear.8 mph52%29.80 "Hg10 mi
8:53 PM78 °FSunny.7 mph48%29.80 "Hg10 mi
7:53 PM81 °FSunny.7 mph41%29.79 "Hg10 mi
6:53 PM84 °FSunny.8 mph40%29.80 "Hg10 mi
5:53 PM85 °FSunny.15 mph39%29.80 "Hg10 mi
4:53 PM86 °FSunny.14 mph37%29.80 "Hg10 mi
3:53 PM86 °FSunny.10 mph33%29.82 "Hg10 mi
2:53 PM86 °FSunny.13 mph37%29.84 "Hg10 mi
1:53 PM85 °FSunny.13 mph34%29.86 "Hg10 mi
12:53 PM83 °FSunny.9 mph40%29.87 "Hg10 mi
11:53 AM81 °FSunny.10 mph38%29.88 "Hg10 mi
Weather by CustomWeather, © 2016

See weather overviewHow to use our weather pages